| time (UTC) | temp F | wind direction | speed MPH | gust MPH | rain 1hr in | rain 24hr in | rain mn in | humidity % | barometer mb |
| 20260906120046 | 56 | 353 | 11.0 | 18.0 | 0.00 | 0.07 | 0.00 | 86 | 1019.1 |
| 20260906114539 | 57 | 8 | 13.0 | 20.0 | 0.00 | 0.07 | 0.00 | 86 | 1019.3 |
| 20260906113046 | 56 | 8 | 12.0 | 18.0 | 0.00 | 0.07 | 0.00 | 86 | 1019.1 |
| 20260906111555 | 56 | 16 | 13.0 | 19.0 | 0.00 | 0.07 | 0.00 | 86 | 1019.0 |
| 20260906110044 | 56 | 17 | 14.0 | 20.0 | 0.00 | 0.07 | 0.00 | 85 | 1018.9 |
| 20260906104543 | 56 | 18 | 13.0 | 19.0 | 0.00 | 0.07 | 0.00 | 85 | 1019.1 |
| 20260906103045 | 56 | 13 | 14.0 | 23.0 | 0.00 | 0.07 | 0.00 | 85 | 1018.9 |
| 20260906101544 | 56 | 12 | 14.0 | 24.0 | 0.00 | 0.07 | 0.00 | 84 | 1019.4 |
| 20260906100044 | 56 | 341 | 16.0 | 23.0 | 0.00 | 0.07 | 0.00 | 85 | 1018.9 |
| 20260906094539 | 55 | 352 | 15.0 | 25.0 | 0.00 | 0.07 | 0.00 | 85 | 1018.9 |
| 20260906093054 | 56 | 2 | 18.0 | 28.0 | 0.00 | 0.07 | 0.00 | 86 | 1019.3 |
| 20260906091544 | 56 | 327 | 15.0 | 22.0 | 0.00 | 0.07 | 0.00 | 86 | 1019.9 |
| 20260906090052 | 56 | 345 | 15.0 | 28.0 | 0.00 | 0.07 | 0.00 | 86 | 1020.2 |
| 20260906084551 | 56 | 347 | 18.0 | 26.0 | 0.00 | 0.07 | 0.00 | 86 | 1019.6 |
| 20260906083045 | 56 | 2 | 17.0 | 25.0 | 0.00 | 0.07 | 0.00 | 85 | 1019.5 |
| 20260906081551 | 56 | 5 | 14.0 | 24.0 | 0.00 | 0.07 | 0.00 | 83 | 1019.8 |
| 20260906080045 | 56 | 359 | 16.0 | 24.0 | 0.00 | 0.07 | 0.00 | 83 | 1019.6 |
| 20260906074547 | 57 | 356 | 17.0 | 28.0 | 0.00 | 0.07 | 0.00 | 82 | 1019.7 |
| 20260906073055 | 57 | 6 | 18.0 | 26.0 | 0.00 | 0.07 | 0.00 | 82 | 1019.7 |
| 20260906071545 | 57 | 6 | 18.0 | 26.0 | 0.00 | 0.07 | 0.00 | 82 | 1020.0 |
| 20260906070054 | 57 | 1 | 16.0 | 24.0 | 0.00 | 0.07 | 0.00 | 83 | 1020.3 |
| 20260906064546 | 57 | 15 | 18.0 | 25.0 | 0.00 | 0.07 | 0.00 | 82 | 1020.6 |
| 20260906063046 | 57 | 2 | 17.0 | 26.0 | 0.00 | 0.07 | 0.00 | 82 | 1020.5 |
| 20260906061600 | 57 | 32 | 18.0 | 25.0 | 0.00 | 0.07 | 0.00 | 82 | 1020.7 |
| 20260906060044 | 57 | 347 | 16.0 | 25.0 | 0.01 | 0.07 | 0.00 | 83 | 1020.7 |
| 20260906054546 | 57 | 11 | 19.0 | 27.0 | 0.01 | 0.07 | 0.07 | 83 | 1020.6 |
| 20260906053050 | 56 | 356 | 15.0 | 22.0 | 0.01 | 0.07 | 0.07 | 83 | 1020.6 |
| 20260906051545 | 56 | 3 | 18.0 | 26.0 | 0.01 | 0.07 | 0.07 | 81 | 1020.3 |
| 20260906050104 | 57 | 358 | 17.0 | 23.0 | 0.00 | 0.06 | 0.06 | 79 | 1020.3 |
| 20260906044545 | 57 | 351 | 20.0 | 27.0 | 0.00 | 0.06 | 0.06 | 79 | 1020.5 |
| 20260906043058 | 57 | 357 | 19.0 | 31.0 | 0.02 | 0.06 | 0.06 | 80 | 1020.0 |
| 20260906041544 | 56 | 345 | 19.0 | 29.0 | 0.02 | 0.06 | 0.06 | 82 | 1019.9 |
| 20260906040104 | 57 | 352 | 21.0 | 30.0 | 0.02 | 0.06 | 0.06 | 81 | 1019.8 |
| 20260906034545 | 58 | 3 | 18.0 | 25.0 | 0.02 | 0.06 | 0.06 | 78 | 1020.4 |
| 20260906033045 | 59 | 347 | 14.0 | 24.0 | 0.00 | 0.04 | 0.04 | 71 | 1021.4 |
| 20260906031542 | 59 | 353 | 16.0 | 32.0 | 0.00 | 0.04 | 0.04 | 71 | 1020.0 |
| 20260906030048 | 59 | 356 | 19.0 | 28.0 | 0.00 | 0.04 | 0.04 | 70 | 1019.3 |
| 20260906024547 | 59 | 354 | 20.0 | 29.0 | 0.00 | 0.04 | 0.04 | 69 | 1018.8 |
| 20260906023101 | 59 | 340 | 16.0 | 30.0 | 0.00 | 0.04 | 0.04 | 68 | 1018.8 |
| 20260906021544 | 60 | 14 | 14.0 | 24.0 | 0.00 | 0.04 | 0.04 | 67 | 1018.7 |
| 20260906020048 | 61 | 340 | 15.0 | 25.0 | 0.00 | 0.04 | 0.04 | 66 | 1018.9 |
| 20260906014556 | 62 | 6 | 13.0 | 20.0 | 0.00 | 0.04 | 0.04 | 63 | 1018.9 |
| 20260906013044 | 63 | 19 | 13.0 | 20.0 | 0.00 | 0.04 | 0.04 | 62 | 1018.6 |
| 20260906011553 | 63 | 14 | 14.0 | 19.0 | 0.00 | 0.04 | 0.04 | 60 | 1018.8 |
| 20260906010044 | 65 | 6 | 13.0 | 21.0 | 0.00 | 0.04 | 0.04 | 58 | 1018.7 |
| 20260906004542 | 66 | 29 | 15.0 | 22.0 | 0.00 | 0.04 | 0.04 | 55 | 1019.0 |
| 20260906003047 | 67 | 342 | 14.0 | 21.0 | 0.00 | 0.04 | 0.04 | 55 | 1019.1 |
| 20260906001544 | 66 | 27 | 15.0 | 20.0 | 0.00 | 0.04 | 0.04 | 56 | 1019.0 |
| 20260906000044 | 67 | 358 | 13.0 | 19.0 | 0.00 | 0.04 | 0.04 | 56 | 1019.4 |
| 20260905234552 | 67 | 10 | 12.0 | 18.0 | 0.00 | 0.04 | 0.04 | 54 | 1019.4 |
| 20260905233044 | 67 | 25 | 11.0 | 19.0 | 0.00 | 0.04 | 0.04 | 54 | 1019.3 |
| 20260905231547 | 69 | 45 | 12.0 | 19.0 | 0.00 | 0.04 | 0.04 | 52 | 1019.1 |
| 20260905230045 | 69 | 35 | 7.0 | 15.0 | 0.00 | 0.04 | 0.04 | 50 | 1019.1 |
| 20260905224559 | 70 | 2 | 9.0 | 14.0 | 0.00 | 0.04 | 0.04 | 50 | 1019.1 |
| 20260905223047 | 70 | 23 | 9.0 | 15.0 | 0.00 | 0.04 | 0.04 | 48 | 1019.2 |
| 20260905221544 | 70 | 27 | 8.0 | 17.0 | 0.00 | 0.04 | 0.04 | 50 | 1019.3 |
| 20260905220044 | 70 | 40 | 9.0 | 16.0 | 0.00 | 0.04 | 0.04 | 50 | 1019.4 |
| 20260905214547 | 70 | 29 | 9.0 | 14.0 | 0.00 | 0.04 | 0.04 | 49 | 1019.4 |
| 20260905213044 | 69 | 345 | 8.0 | 15.0 | 0.00 | 0.04 | 0.04 | 50 | 1019.4 |
| 20260905211543 | 71 | 15 | 9.0 | 17.0 | 0.00 | 0.04 | 0.04 | 48 | 1019.2 |
| 20260905210046 | 72 | 153 | 2.0 | 15.0 | 0.00 | 0.04 | 0.04 | 39 | 1019.3 |
| 20260905204546 | 70 | 291 | 2.0 | 8.0 | 0.00 | 0.04 | 0.04 | 38 | 1019.5 |
| 20260905203047 | 70 | 257 | 6.0 | 10.0 | 0.00 | 0.04 | 0.04 | 38 | 1019.6 |
| 20260905201546 | 69 | 318 | 2.0 | 10.0 | 0.00 | 0.04 | 0.04 | 40 | 1019.7 |
| 20260905200052 | 69 | 337 | 5.0 | 12.0 | 0.00 | 0.04 | 0.04 | 40 | 1019.7 |
| 20260905194541 | 68 | 262 | 7.0 | 14.0 | 0.00 | 0.04 | 0.04 | 42 | 1019.9 |
| 20260905193045 | 67 | 349 | 5.0 | 14.0 | 0.00 | 0.04 | 0.04 | 43 | 1020.0 |
| 20260905191546 | 67 | 259 | 4.0 | 11.0 | 0.00 | 0.04 | 0.04 | 43 | 1020.1 |
| 20260905190049 | 67 | 308 | 10.0 | 15.0 | 0.00 | 0.04 | 0.04 | 43 | 1020.4 |
| 20260905184558 | 67 | 285 | 6.0 | 12.0 | 0.00 | 0.04 | 0.04 | 45 | 1020.4 |
| 20260905183050 | 66 | 302 | 5.0 | 10.0 | 0.00 | 0.04 | 0.04 | 50 | 1020.4 |
| 20260905181545 | 64 | 239 | 3.0 | 9.0 | 0.00 | 0.04 | 0.04 | 54 | 1020.4 |
| 20260905180043 | 64 | 257 | 5.0 | 8.0 | 0.00 | 0.04 | 0.04 | 54 | 1020.7 |
| 20260905174547 | 63 | 257 | 4.0 | 8.0 | 0.00 | 0.04 | 0.04 | 59 | 1020.5 |
| 20260905173045 | 62 | 281 | 3.0 | 7.0 | 0.00 | 0.04 | 0.04 | 61 | 1020.4 |
| 20260905171544 | 62 | 252 | 1.0 | 7.0 | 0.00 | 0.04 | 0.04 | 66 | 1020.4 |
| 20260905170050 | 62 | 279 | 3.0 | 8.0 | 0.00 | 0.04 | 0.04 | 69 | 1020.4 |
| 20260905164545 | 61 | 217 | 2.0 | 6.0 | 0.00 | 0.04 | 0.04 | 72 | 1020.4 |
| 20260905163045 | 60 | 224 | 3.0 | 7.0 | 0.00 | 0.04 | 0.04 | 76 | 1020.6 |
| 20260905161544 | 59 | 214 | 2.0 | 5.0 | 0.00 | 0.04 | 0.04 | 76 | 1020.5 |
| 20260905160040 | 58 | 0 | 0.0 | 2.0 | 0.00 | 0.04 | 0.04 | 79 | 1020.3 |
| 20260905154549 | 58 | 40 | 2.0 | 8.0 | 0.01 | 0.04 | 0.04 | 80 | 1020.3 |
| 20260905153055 | 57 | 62 | 3.0 | 8.0 | 0.01 | 0.04 | 0.04 | 86 | 1020.1 |
| 20260905151547 | 55 | 0 | 0.0 | 2.0 | 0.01 | 0.04 | 0.04 | 89 | 1020.0 |
| 20260905150046 | 54 | 0 | 0.0 | 1.0 | 0.01 | 0.04 | 0.04 | 89 | 1019.9 |
| 20260905144547 | 54 | 329 | 1.0 | 4.0 | 0.01 | 0.03 | 0.03 | 89 | 1019.9 |
| 20260905143046 | 53 | 331 | 3.0 | 8.0 | 0.03 | 0.03 | 0.03 | 89 | 1019.6 |
| 20260905141544 | 52 | 318 | 6.0 | 8.0 | 0.03 | 0.03 | 0.03 | 88 | 1019.7 |
| 20260905140042 | 52 | 291 | 2.0 | 9.0 | 0.03 | 0.03 | 0.03 | 87 | 1020.2 |
| 20260905134542 | 52 | 274 | 11.0 | 18.0 | 0.01 | 0.01 | 0.01 | 84 | 1020.7 |
| 20260905133045 | 53 | 271 | 8.0 | 12.0 | 0.00 | 0.00 | 0.00 | 83 | 1019.9 |
| 20260905131559 | 53 | 233 | 9.0 | 14.0 | 0.00 | 0.00 | 0.00 | 79 | 1019.7 |
| 20260905130049 | 52 | 0 | 0.0 | 7.0 | 0.00 | 0.00 | 0.00 | 77 | 1018.7 |
| 20260905124544 | 52 | 175 | 4.0 | 10.0 | 0.00 | 0.00 | 0.00 | 78 | 1019.4 |
| 20260905123046 | 52 | 152 | 4.0 | 7.0 | 0.00 | 0.00 | 0.00 | 76 | 1019.1 |
| 20260905121544 | 52 | 160 | 4.0 | 7.0 | 0.00 | 0.00 | 0.00 | 72 | 1018.9 |